Flag for Saudi Arabia Weather past 2 weeks in Jeddah, Saudi Arabia

Now
86 °F

Clear.


Feels Like: 95 °F
Forecast: 82 / 93 °F
Wind: 6 mph from Southwest

Location: Jeddah King Abdul Aziz International Airport

Current Time: May 30, 2015 at 4:14:15 AM

Latest Report: May 30, 2015 at 4:00 AM


Visibility: 10 mi

Pressure: 29.71 "Hg

Humidity: 70%

Dew point: 75 °F

Location of JeddahLocation

Historic Weather in Jeddah — Graph

°F

Jeddah temperature yesterday

Maximum temperature yesterday: 102 °F (at 12:00 PM)
Minimum temperature yesterday: 82 °F (at 3:00 AM)
Average temperature yesterday: 92 °F

Past Weeks' High & Low Weather Summary

 TemperatureHumidityPressure
High106 °F (May 20, 1:00 PM)84% (May 17, 4:00 AM)29.86 "Hg (May 17, 4:00 AM)
Low77 °F (May 17, 6:00 AM)14% (May 27, 1:00 PM)29.65 "Hg (May 19, 3:00 AM)
Average89 °F47%29.72 "Hg
* Reported May 15 3:00 AM — May 30 3:00 AM, Jeddah, Weather by CustomWeather, © 2015

Note: Actual official high and low records may vary slightly from our data, if they occured in-between our weather recording intervals... More about our weather records

Advertising

Jeddah weather history for previous 24 hours

 ConditionsComfort  
Time TempWeatherWind HumidityBarometerVisibility
3:00 AM
Sat, May 30
86 °FClear.5 mph59%29.68 "Hg10 mi
2:00 AM88 °FClear.5 mph52%29.68 "Hg10 mi
1:00 AM88 °FClear.3 mph52%29.68 "Hg10 mi
12:00 AM88 °FClear.6 mph52%29.71 "Hg10 mi
11:00 PM
Fri, May 29
88 °FClear.5 mph52%29.71 "Hg10 mi
10:00 PM90 °FClear.No wind52%29.71 "Hg10 mi
9:00 PM90 °FClear.No wind52%29.71 "Hg10 mi
8:00 PM91 °FClear.No wind49%29.68 "Hg10 mi
7:00 PM91 °FClear.3 mph49%29.68 "Hg10 mi
6:00 PM93 °FSunny.8 mph47%29.68 "Hg10 mi
5:00 PM95 °FSunny.10 mph44%29.68 "Hg10 mi
4:00 PM95 °FSunny.12 mph44%29.68 "Hg10 mi
3:00 PM95 °FSunny.14 mph44%29.71 "Hg10 mi
2:00 PM97 °FSunny.16 mph42%29.71 "Hg10 mi
1:00 PM100 °FSunny.14 mph31%29.71 "Hg10 mi
12:00 PM102 °FSunny.12 mph33%29.71 "Hg10 mi
11:00 AM100 °FSunny.16 mph35%29.71 "Hg10 mi
10:00 AM97 °FSunny.14 mph37%29.74 "Hg10 mi
9:00 AM93 °FSunny.16 mph44%29.74 "Hg10 mi
8:00 AM91 °FSunny.18 mph46%29.71 "Hg10 mi
7:00 AM88 °FSunny.14 mph46%29.71 "Hg10 mi
6:00 AM88 °FSunny.12 mph40%29.68 "Hg10 mi
5:00 AM86 °FClear.7 mph33%29.68 "Hg10 mi
4:00 AM84 °FClear.7 mph33%29.65 "Hg10 mi
Weather by CustomWeather, © 2015

See weather overviewHow to use our weather pages